Regional Weather Roundup
Issued by NWS Green Bay, WI

Home | Current Version | Previous Version | Graphics & Text | Print | Product List | Glossary Off
Versions: 1 2 3 4 5 6 7 8 9 10 11 12 13 14 15 16 17 18 19 20 21 22 23 24 25 26 27 28 29 30 31 32 33 34 35 36 37 38 39 40 41 42 43 44 45 46 47 48 49 50

000
ASUS43 KGRB 202011
RWRGRB

NORTH-CENTRAL AND NORTHEAST WISCONSIN REGIONAL WEATHER ROUNDUP
NATIONAL WEATHER SERVICE GREEN BAY WI
300 PM CDT THU JUL 20 2017

WIZ005-009-010>012-018-019-202100-
NORTH CENTRAL WISCONSIN

CITY           SKY/WX    TMP DP  RH WIND       PRES   REMARKS
IRONWOOD       SUNNY     79  64  60 NW9       30.00R
MANITOWISH WTR SUNNY     83  58  42 W9G16     30.00R
ARBOR VITAE    SUNNY     85  58  39 W8        29.99R
EAGLE RIVER    MOSUNNY   83  56  39 W10G18    29.99S
LAND O LAKES   MOSUNNY   83  56  40 W10       30.00S
RHINELANDER    MOSUNNY   85  63  47 W14G21    30.00F
PHILLIPS       MOSUNNY   82  65  56 W5        30.00S
ANTIGO         MOSUNNY   82  63  52 NW10G17   30.00F
TOMAHAWK         N/A     82  62  51 W13G18    30.01S
MERRILL        CLOUDY    83  65  53 NW8       30.00S
$$

WIZ013-073-202100-
NORTHEAST WISCONSIN

CITY           SKY/WX    TMP DP  RH WIND       PRES   REMARKS
IRON MOUNTAIN  MOSUNNY   87  60  40 NW13      29.93F
MARINETTE      CLOUDY    84  66  54 VRB5      29.93F
OCONTO         SUNNY     85  66  52 W10G16    29.92S
$$

WIZ017-030-035>037-045-202100-
CENTRAL WISCONSIN

CITY           SKY/WX    TMP DP  RH WIND       PRES   REMARKS
MEDFORD        CLOUDY    81  62  52 W9        30.01S
WAUSAU         SUNNY     83  64  52 W12       29.98S
MOSINEE        PTSUNNY   82  66  57 NW9       30.00F
MARSHFIELD     MOSUNNY   83  66  56 NW10      30.01R
WISC RAPIDS    PTSUNNY   84  69  60 NW10      30.00S
STEVENS POINT  CLOUDY    82  65  56 NW8       29.99S
WAUPACA        PTSUNNY   85  65  51 W7        29.97R
SHAWANO        SUNNY     88  66  47 W8G18     29.94F HX  90
CLINTONVILLE   SUNNY     84  64  51 NW10      29.95S
WAUTOMA        NOT AVBL
$$

WIZ038-039-048-051-202100-
FOX VALLEY

CITY           SKY/WX    TMP DP  RH WIND       PRES   REMARKS
NWS GREEN BAY  CLOUDY    85  70  60 NW12      29.94F
APPLETON       MOSUNNY   84  64  51 W12       29.95S
OSHKOSH        SUNNY     84  68  58 NW12      29.95S
FOND DU LAC    SUNNY     85  68  56 N9        29.96S
$$

WIZ022-050-052-202100-
EAST CENTRAL WISCONSIN

CITY           SKY/WX    TMP DP  RH WIND       PRES   REMARKS
EPHRAIM        FAIR      81  65  59 NW8       29.93S
WASHINGTON ISL FAIR      78  65  63 SW8       29.92S
STURGEON BAY     N/A     81  67  62 W10       29.94S
MANITOWOC      SUNNY     85  67  54 NW9       29.94S
SHEBOYGAN      SUNNY     84  72  67 NW8       29.95F
$$

LMZ563-521-522-541>543-202100-
LAKESHORE

STATION/POSITION TIME  TEMP    WIND        PRES    VSBY  WAVE
                       AIR SEA DIR/SP/G                  HT/PER
                 (UTC) (F)     (DEG/KT/KT) (MB)    (MI)  (FT/S)
SHEBOYGAN LKSHOR 2000   70     170/ 16/ 17 1013.5F
KEWAUNEE LKSHORE 1942   83     310/  4/ 12 1013.1F
NORTHPORT PIER   1940   83     280/  5/ 11 1012.9F
N MID LAKE BUOY  1950   69 65  200/  4/  4 1013.7F         2/ 6
S GREEN BAY BUOY 2000   78 73  300/  4/  6 1013.4
SISTER BAY LKSHO 2002   89     260/  4/  5   N/A
CHAMBERS ISLAND  1940   83     250/  4/  7 1012.5F
MENOMINEE LKSHOR 1942   83     290/  7/ 11 1013.0F
$$




USA.gov is the U.S. government's official web portal to all federal, state and local government web resources and services.